TimeEDT,TemperatureF,Dew PointF,Humidity,Sea Level PressureIn,VisibilityMPH,Wind Direction,Wind SpeedMPH,Gust SpeedMPH,PrecipitationIn,Events,Conditions,WindDirDegrees,DateUTC
12:00 AM,46.4,44.6,93,29.91,8.0,WSW,5.8,-,N/A,Rain,Light Rain Showers,250,2012-10-06 04:00:00
1:00 AM,46.4,44.6,93,29.90,8.0,WSW,10.4,-,N/A,Rain,Light Rain Showers,240,2012-10-06 05:00:00
1:34 AM,46.4,44.6,93,29.89,6.0,WSW,8.1,-,N/A,Rain,Light Rain Showers,250,2012-10-06 05:34:00
2:00 AM,46,45,95,29.89,7,West,9.2,,,Rain,Light Rain,260,2012-10-06 06:00:00
2:00 AM,46.4,44.6,93,29.89,7.0,WSW,10.4,-,N/A,Rain,Light Rain,250,2012-10-06 06:00:00
3:00 AM,46.4,44.6,93,29.86,15.0,West,8.1,-,N/A,Rain,Light Rain,270,2012-10-06 07:00:00
4:00 AM,46.4,44.6,93,29.87,6.0,West,6.9,-,N/A,Rain,Light Rain,260,2012-10-06 08:00:00
5:00 AM,44.6,44.6,100,29.88,7.0,WSW,9.2,-,N/A,Rain,Light Rain,240,2012-10-06 09:00:00
6:00 AM,44.6,42.8,93,29.87,15.0,WSW,9.2,-,N/A,Rain,Light Rain,240,2012-10-06 10:00:00
6:46 AM,44.6,42.8,93,29.88,15.0,WSW,9.2,-,N/A,,Mostly Cloudy,250,2012-10-06 10:46:00
8:00 AM,43,42,94,29.89,10,SW,10.4,,,,Partly Cloudy,230,2012-10-06 12:00:00
8:00 AM,42.8,41.0,93,29.89,10.0,SW,10.4,-,N/A,,Partly Cloudy,230,2012-10-06 12:00:00
8:28 AM,44.6,42.8,93,29.89,10.0,WSW,11.5,-,N/A,,Partly Cloudy,240,2012-10-06 12:28:00
9:00 AM,44.6,42.8,93,29.90,15.0,WSW,11.5,-,N/A,,Partly Cloudy,250,2012-10-06 13:00:00
10:00 AM,48.2,42.8,82,29.91,15.0,West,13.8,21.9,N/A,,Partly Cloudy,270,2012-10-06 14:00:00
11:00 AM,50.0,39.2,66,29.92,15.0,West,19.6,27.6,N/A,,Mostly Cloudy,260,2012-10-06 15:00:00
12:00 PM,48.2,32.0,54,29.94,15.0,West,18.4,27.6,N/A,,Mostly Cloudy,260,2012-10-06 16:00:00
1:00 PM,50.0,32.0,50,29.94,15.0,WSW,24.2,31.1,N/A,,Mostly Cloudy,240,2012-10-06 17:00:00
2:00 PM,49,34,45,29.94,15,West,17.3,,,,Mostly Cloudy,260,2012-10-06 18:00:00
2:00 PM,50.0,33.8,54,29.94,15.0,WSW,18.4,26.5,N/A,,Mostly Cloudy,250,2012-10-06 18:00:00
3:00 PM,48.2,33.8,58,29.96,15.0,West,15.0,24.2,N/A,,Overcast,270,2012-10-06 19:00:00
4:00 PM,48.2,33.8,58,29.97,15.0,WSW,15.0,-,N/A,,Mostly Cloudy,240,2012-10-06 20:00:00
5:00 PM,48.2,33.8,58,29.97,15.0,WSW,16.1,-,N/A,,Mostly Cloudy,240,2012-10-06 21:00:00
6:00 PM,46.4,33.8,62,29.99,15.0,WSW,13.8,-,N/A,,Mostly Cloudy,240,2012-10-06 22:00:00
7:00 PM,44.6,33.8,66,30.00,15.0,WSW,9.2,-,N/A,,Scattered Clouds,240,2012-10-06 23:00:00
8:00 PM,45,35,59,30.03,15,SW,6.9,,,,Mostly Cloudy,220,2012-10-07 00:00:00
8:00 PM,44.6,35.6,71,30.02,15.0,SW,6.9,-,N/A,,Mostly Cloudy,220,2012-10-07 00:00:00
9:00 PM,44.6,35.6,71,30.04,15.0,WSW,5.8,-,N/A,,Overcast,250,2012-10-07 01:00:00
10:00 PM,44.6,37.4,76,30.06,15.0,WSW,8.1,-,N/A,,Overcast,240,2012-10-07 02:00:00
11:00 PM,44.6,39.2,81,30.06,15.0,West,4.6,-,N/A,Rain,Light Rain Showers,280,2012-10-07 03:00:00